tititudorancea.com
Station Historical Data
Daily Summary for November 22, 2018 Units:  Metric    English   Both
« Previous Day
Next Day »
Daily Weekly Monthly Yearly Custom
  High: Low: Average:
Temperature: -17.8 °C 6.3 °C 8.6 °C
Dew Point: -17.8 °C 3.8 °C 6.3 °C
Humidity: Humidity % 65 % 86 %
Wind Speed: 0 km/h 1.6 km/h 20.6 km/h
Wind Gust: 0 km/h - -
Wind:- - SSE
Pressure: 0 hPa 991.8 hPa -
Precipitation: 10.92 mm    
Historical Graphs
 
 
Ararat weather Find more about Weather in Ararat, AU


 



 


Tabular Data for November 22, 2018
Time Temperature Dew Point Pressure Wind Wind Speed Wind Gust Humidity Rainfall Rate (Hourly)
-17.8 °C -17.8 °C 0 hPa Calm     Humidity % 0 mm
00:04 7.7 °C 5.5 °C 994.8 hPa North 14.8 km/h 7.7 km/h 86 % 0 mm
00:09 7.8 °C 5.3 °C 994.8 hPa North 16.7 km/h 8.9 km/h 84 % 0 mm
00:14 7.9 °C 5.2 °C 994.8 hPa North 13 km/h 8.4 km/h 83 % 0 mm
00:19 7.9 °C 5.2 °C 994.8 hPa North 16.7 km/h 6.3 km/h 83 % 0 mm
00:24 7.8 °C 5.1 °C 994.8 hPa North 11.1 km/h 7.6 km/h 83 % 0 mm
00:29 7.7 °C 5 °C 994.8 hPa North 5.6 km/h 5 km/h 83 % 0 mm
00:34 7.6 °C 5.1 °C 994.8 hPa North 8 km/h 6.1 km/h 84 % 0 mm
00:39 7.5 °C 4.8 °C 994.5 hPa North 6.4 km/h 5.5 km/h 83 % 0 mm
00:44 7.4 °C 4.7 °C 994.5 hPa North 14.8 km/h 10.9 km/h 83 % 0 mm
00:49 7.6 °C 4.2 °C 994.5 hPa North 25.9 km/h 12.2 km/h 79 % 0 mm
00:54 7.8 °C 4.1 °C 994.5 hPa North 18.5 km/h 8.5 km/h 77 % 0.25 mm
00:59 7.9 °C 3.9 °C 994.5 hPa North 17.7 km/h 11.4 km/h 76 % 0.25 mm
01:04 7.9 °C 3.8 °C 994.5 hPa North 19.3 km/h 14.5 km/h 75 % 0.25 mm
01:09 8 °C 3.8 °C 994.5 hPa North 18.5 km/h 12.2 km/h 75 % 0.25 mm
01:14 8.1 °C 3.9 °C 994.1 hPa North 18.5 km/h 8.9 km/h 75 % 0.25 mm
01:19 8.1 °C 3.9 °C 994.1 hPa North 13 km/h 10.8 km/h 75 % 0.25 mm
01:24 8.2 °C 3.8 °C 994.1 hPa North 11.1 km/h 9 km/h 74 % 0.25 mm
01:29 8.1 °C 3.8 °C 994.1 hPa North 16.7 km/h 13.8 km/h 74 % 0.25 mm
01:34 8.2 °C 3.8 °C 994.1 hPa North 18.5 km/h 15.8 km/h 74 % 0.25 mm
01:39 8.2 °C 3.8 °C 993.8 hPa North 18.5 km/h 10.5 km/h 74 % 0.25 mm
01:44 8.2 °C 3.8 °C 993.8 hPa North 14.8 km/h 8.7 km/h 74 % 0.25 mm
01:49 8.1 °C 3.8 °C 993.8 hPa NNE 18.5 km/h 11.7 km/h 74 % 0.25 mm
01:54 8.1 °C 3.8 °C 993.8 hPa North 18.5 km/h 10.5 km/h 74 % 0 mm
01:59 8.1 °C 3.9 °C 993.5 hPa North 14.8 km/h 11.3 km/h 75 % 0 mm
02:04 8.1 °C 3.9 °C 993.5 hPa NNE 27.8 km/h 10.3 km/h 75 % 0 mm
02:09 8 °C 3.8 °C 993.5 hPa North 18.5 km/h 13.7 km/h 75 % 0 mm
02:14 8 °C 3.8 °C 993.5 hPa North 24.1 km/h 11.9 km/h 75 % 0 mm
02:19 8 °C 3.8 °C 993.1 hPa NNE 19.3 km/h 15.4 km/h 75 % 0 mm
02:24 7.9 °C 3.8 °C 993.1 hPa North 19.3 km/h 14 km/h 75 % 0 mm
02:29 7.9 °C 3.9 °C 993.1 hPa North 14.8 km/h 11.9 km/h 76 % 0 mm
02:34 7.9 °C 3.9 °C 992.8 hPa North 18.5 km/h 10.8 km/h 76 % 0 mm
02:39 7.9 °C 3.9 °C 992.8 hPa NNE 12.9 km/h 12.7 km/h 76 % 0 mm
02:44 7.9 °C 3.9 °C 992.8 hPa NNE 16.7 km/h 8.7 km/h 76 % 0 mm
02:49 7.8 °C 4.1 °C 992.8 hPa North 20.4 km/h 15.8 km/h 77 % 0 mm
02:54 7.8 °C 4.2 °C 992.4 hPa NNE 13 km/h 9.5 km/h 78 % 0 mm
02:59 7.7 °C 4.3 °C 992.4 hPa NNE 13 km/h 7.2 km/h 79 % 0 mm
03:04 7.6 °C 4.3 °C 992.4 hPa NNE 9.3 km/h 5.3 km/h 80 % 0 mm
03:09 7.4 °C 4.4 °C 992.4 hPa NNE 14.8 km/h 13.2 km/h 81 % 0 mm
03:14 7.3 °C 4.4 °C 992.4 hPa NNE 12.9 km/h 10 km/h 82 % 0 mm
03:19 7.2 °C 4.5 °C 992.1 hPa NNE 9.7 km/h 7.1 km/h 83 % 0 mm
03:24 7.1 °C 4.4 °C 992.1 hPa NNE 9.3 km/h 4.7 km/h 83 % 0 mm
03:29 7.1 °C 4.6 °C 992.1 hPa NNE 8 km/h 6.4 km/h 84 % 0 mm
03:34 7.1 °C 4.6 °C 992.1 hPa NNE 9.7 km/h 10.1 km/h 84 % 0 mm
03:39 7.1 °C 4.6 °C 992.1 hPa NNE 18.5 km/h 9.3 km/h 84 % 0 mm
03:44 7.1 °C 4.7 °C 992.1 hPa NNE 14.8 km/h 8.4 km/h 85 % 0 mm
03:49 7.1 °C 4.7 °C 992.1 hPa NNE 5.6 km/h 3.1 km/h 85 % 0 mm
03:54 7.1 °C 4.9 °C 992.1 hPa NNE 11.3 km/h 11.7 km/h 86 % 0 mm
03:59 7 °C 5 °C 992.1 hPa NNE 9.3 km/h 6 km/h 87 % 0 mm
04:04 6.9 °C 4.9 °C 991.8 hPa NNE 11.1 km/h 6.9 km/h 87 % 0 mm
04:09 6.8 °C 5 °C 991.8 hPa NNE 7.4 km/h 5.6 km/h 88 % 0 mm
04:14 6.7 °C 5.1 °C 991.8 hPa NNE 12.9 km/h 5.8 km/h 89 % 0.25 mm
04:19 6.7 °C 5.1 °C 991.8 hPa NNE 7.4 km/h 3.4 km/h 89 % 0.51 mm
04:24 6.7 °C 5.2 °C 991.8 hPa NNE 8 km/h 5.6 km/h 90 % 0.51 mm
04:29 6.6 °C 5.1 °C 991.8 hPa NNE 8 km/h 7.6 km/h 90 % 0.51 mm
04:34 6.6 °C 5.2 °C 991.8 hPa NNE 11.1 km/h 6.9 km/h 91 % 0.51 mm
04:39 6.6 °C 5.2 °C 991.8 hPa NNE 7.4 km/h 2.4 km/h 91 % 0.51 mm
04:44 6.6 °C 5.2 °C 991.8 hPa NNE 8 km/h 8.2 km/h 91 % 0.76 mm
04:49 6.6 °C 5.2 °C 991.8 hPa NNE 7.4 km/h 1.6 km/h 91 % 1.02 mm
04:54 6.6 °C 5.2 °C 991.8 hPa NNE 9.7 km/h 7.7 km/h 91 % 1.02 mm
04:59 6.6 °C 5.3 °C 991.8 hPa NNE 13 km/h 5.3 km/h 92 % 1.27 mm
05:04 6.6 °C 5.3 °C 991.8 hPa NNE 13 km/h 8 km/h 92 % 1.52 mm
05:09 6.5 °C 5.3 °C 991.8 hPa NE 12.9 km/h 4.7 km/h 92 % 1.52 mm
05:14 6.5 °C 5.3 °C 991.8 hPa NE 8 km/h 4.2 km/h 92 % 1.52 mm
05:19 6.5 °C 5.3 °C 991.8 hPa NE 11.1 km/h 5.3 km/h 92 % 1.52 mm
05:24 6.4 °C 5.2 °C 991.8 hPa NE 11.1 km/h 6.6 km/h 92 % 1.52 mm
05:29 6.4 °C 5.2 °C 991.8 hPa NE 11.1 km/h 4.7 km/h 92 % 1.52 mm
05:34 6.4 °C 5.2 °C 991.8 hPa NE 8 km/h 7.1 km/h 92 % 1.52 mm
05:39 6.4 °C 5.2 °C 991.8 hPa NE 9.3 km/h 6.3 km/h 92 % 1.78 mm
05:44 6.4 °C 5.3 °C 991.8 hPa NE 7.4 km/h 4.8 km/h 93 % 1.78 mm
05:49 6.4 °C 5.3 °C 991.8 hPa NE 11.1 km/h 7.2 km/h 93 % 1.78 mm
05:54 6.4 °C 5.3 °C 991.8 hPa NE 5.6 km/h 1.4 km/h 93 % 2.03 mm
05:59 6.4 °C 5.3 °C 991.8 hPa NE 3.7 km/h 2.6 km/h 93 % 1.78 mm
06:04 6.4 °C 5.3 °C 992.1 hPa NE 5.6 km/h 2.4 km/h 93 % 1.52 mm
06:09 6.4 °C 5.3 °C 992.1 hPa NE 5.6 km/h 0.8 km/h 93 % 1.78 mm
06:14 6.4 °C 5.3 °C 992.1 hPa NE 1.9 km/h 1.1 km/h 93 % 1.52 mm
06:19 6.4 °C 5.3 °C 992.1 hPa NE 8 km/h 3.2 km/h 93 % 1.52 mm
06:24 6.3 °C 5.3 °C 992.1 hPa NE 3.7 km/h 1.3 km/h 93 % 1.52 mm
06:29 6.3 °C 5.3 °C 992.1 hPa NE 4.8 km/h 4.7 km/h 93 % 1.27 mm
06:34 6.3 °C 5.2 °C 992.1 hPa NE 3.2 km/h 0.5 km/h 93 % 1.52 mm
06:39 6.4 °C 5.3 °C 992.1 hPa NE 6.4 km/h 3.1 km/h 93 % 1.27 mm
06:44 6.4 °C 5.3 °C 992.4 hPa NE 3.7 km/h 2.3 km/h 93 % 1.27 mm
06:49 6.4 °C 5.3 °C 992.4 hPa NE 5.6 km/h 2.7 km/h 93 % 1.02 mm
06:54 6.5 °C 5.4 °C 992.4 hPa NE 7.4 km/h 3.5 km/h 93 % 0.76 mm
06:59 6.6 °C 5.5 °C 992.4 hPa NE 5.6 km/h 2.7 km/h 93 % 0.76 mm
07:04 6.7 °C 5.8 °C 992.8 hPa NE 4.8 km/h 1 km/h 94 % 1.02 mm
07:09 6.8 °C 5.9 °C 992.8 hPa NE 3.7 km/h 3.4 km/h 94 % 0.76 mm
07:14 6.9 °C 6 °C 992.8 hPa NE 7.4 km/h 6.1 km/h 94 % 0.76 mm
07:19 6.9 °C 5.8 °C 992.8 hPa NE 6.4 km/h 4.5 km/h 93 % 0.51 mm
07:24 6.9 °C 6.1 °C 992.8 hPa NE 5.6 km/h 5.3 km/h 94 % 0.51 mm
07:29 7 °C 6.1 °C 992.8 hPa NE 5.6 km/h 0.8 km/h 94 % 0.51 mm
07:34 7.1 °C 6 °C 993.1 hPa NE 7.4 km/h 3.9 km/h 93 % 0.51 mm
07:39 6.9 °C 5.9 °C 993.1 hPa NE 9.7 km/h 6.4 km/h 93 % 0.51 mm
07:44 6.8 °C 5.8 °C 993.1 hPa NE 5.6 km/h 1.1 km/h 93 % 0.25 mm
07:49 6.9 °C 6.1 °C 993.1 hPa NE 3.7 km/h   94 % 0.25 mm
07:54 7.1 °C 6.2 °C 993.5 hPa NE 8 km/h 5.5 km/h 94 % 0.25 mm
07:59 7 °C 5.9 °C 993.5 hPa NE 5.6 km/h 3.5 km/h 93 % 0.25 mm
08:04 6.9 °C 5.9 °C 993.5 hPa NE 6.4 km/h 4.8 km/h 93 % 0 mm
08:09 6.9 °C 5.9 °C 993.5 hPa NE 1.6 km/h 0.2 km/h 93 % 0 mm
08:14 7.2 °C 6.1 °C 993.8 hPa NE 3.7 km/h 2.6 km/h 93 % 0.25 mm
08:19 7.2 °C 6 °C 993.8 hPa NE 5.6 km/h 4.2 km/h 92 % 0.25 mm
08:24 7.1 °C 5.9 °C 993.8 hPa NE 8 km/h 5 km/h 92 % 0.25 mm
08:29 7.2 °C 5.9 °C 993.8 hPa NE 3.7 km/h 2.7 km/h 92 % 0.51 mm
08:34 7.1 °C 5.9 °C 994.1 hPa NE 1.9 km/h   92 % 0.51 mm
08:39 7.2 °C 6 °C 994.1 hPa NE 5.6 km/h 2.9 km/h 92 % 0.51 mm
08:42 7.2 °C 6 °C 994.1 hPa NE 7.4 km/h 5.5 km/h 92 % 0.51 mm
08:59 7.6 °C 6.4 °C 994.5 hPa ENE 11.1 km/h 5.1 km/h 92 % 0.76 mm
09:04 7.8 °C 6.6 °C 994.8 hPa ENE 9.3 km/h 4.2 km/h 92 % 0.76 mm
09:09 7.7 °C 6.3 °C 994.8 hPa East 13 km/h 9 km/h 91 % 0.76 mm
09:14 7.7 °C 6.3 °C 994.8 hPa East 9.3 km/h 5.8 km/h 91 % 1.02 mm
09:19 7.7 °C 6.3 °C 995.1 hPa SSE 14.8 km/h 8.7 km/h 91 % 1.02 mm
09:24 7.6 °C 6.2 °C 995.1 hPa North 14.8 km/h 11.6 km/h 91 % 1.02 mm
09:29 7.7 °C 6.5 °C 995.1 hPa SSE 13 km/h 4.3 km/h 92 % 1.02 mm
09:34 7.8 °C 6.6 °C 995.1 hPa SSE 9.3 km/h 4.8 km/h 92 % 0.76 mm
09:39 7.9 °C 6.7 °C 995.1 hPa SSE 14.8 km/h 11.1 km/h 92 % 0.76 mm
09:44 8 °C 6.6 °C 995.1 hPa SSW 18.5 km/h 11.9 km/h 91 % 0.76 mm
09:49 8.3 °C 6.9 °C 995.1 hPa SSW 9.3 km/h 6 km/h 91 % 0.51 mm
09:54 8.6 °C 7.2 °C 995.5 hPa SSW 13 km/h 4.8 km/h 91 % 0.51 mm
09:59 8.7 °C 7.2 °C 995.5 hPa SSW 12.9 km/h 9.3 km/h 90 % 0.51 mm
10:04 8.6 °C 6.9 °C 995.5 hPa South 16.1 km/h 10.5 km/h 89 % 0.51 mm
10:09 8.3 °C 6.4 °C 995.8 hPa South 20.4 km/h 11.9 km/h 88 % 0.51 mm
10:14 8.4 °C 6.9 °C 995.8 hPa South 16.7 km/h 10.8 km/h 90 % 0.25 mm
10:19 8.6 °C 6.9 °C 995.8 hPa SSW 19.3 km/h 11.4 km/h 89 % 0 mm
10:24 8.7 °C 6.8 °C 995.8 hPa SSW 14.8 km/h 11.3 km/h 88 % 0 mm
10:29 9.1 °C 7 °C 996.2 hPa SSW 20.9 km/h 14.5 km/h 87 % 0 mm
10:34 8.9 °C 6.7 °C 996.5 hPa North 20.4 km/h 17.4 km/h 86 % 0.25 mm
10:39 8.4 °C 6.1 °C 996.5 hPa SSW 25.9 km/h 14.8 km/h 85 % 0.51 mm
10:44 8.6 °C 6.5 °C 996.5 hPa North 19.3 km/h 16.4 km/h 87 % 0.51 mm
10:49 8.6 °C 6.3 °C 996.5 hPa SSW 22.2 km/h 13.5 km/h 86 % 0.51 mm
10:54 8.7 °C 6.7 °C 996.5 hPa SSW 18.5 km/h 11.1 km/h 87 % 0.51 mm
10:59 8.8 °C 6.6 °C 996.5 hPa SSW 16.7 km/h 13.4 km/h 86 % 0.51 mm
11:04 9.2 °C 7 °C 996.5 hPa SW 16.7 km/h 8 km/h 86 % 0.51 mm
11:09 9.3 °C 7.1 °C 996.8 hPa SSW 13 km/h 9.8 km/h 86 % 0.51 mm
11:14 9.3 °C 7.1 °C 996.8 hPa SSW 14.8 km/h 8.7 km/h 86 % 0.51 mm
11:19 9.2 °C 7 °C 996.8 hPa SSW 19.3 km/h 14 km/h 86 % 0.51 mm
11:24 9.6 °C 7.6 °C 996.5 hPa South 13 km/h 9.8 km/h 87 % 0.51 mm
11:29 9.7 °C 7.3 °C 996.8 hPa South 19.3 km/h 10.9 km/h 85 % 0.51 mm
11:34 9.7 °C 7.2 °C 996.8 hPa South 14.8 km/h 9.5 km/h 84 % 0.25 mm
11:39 9.9 °C 6.8 °C 996.8 hPa SSW 22.2 km/h 14.8 km/h 81 % 0 mm
11:44 10.5 °C 7.2 °C 996.8 hPa SSW 25.9 km/h 10.9 km/h 80 % 0 mm
11:49 11 °C 7.7 °C 996.8 hPa South 16.7 km/h 8.2 km/h 80 % 0 mm
11:54 11.2 °C 7.3 °C 996.8 hPa SSW 25.9 km/h 18 km/h 77 % 0 mm
11:59 10.7 °C 6.4 °C 996.8 hPa SSW 20.4 km/h 10 km/h 75 % 0 mm
12:04 10.4 °C 6.9 °C 997.2 hPa SSW 24.1 km/h 16.6 km/h 79 % 0 mm
12:09 9.6 °C 6.2 °C 997.5 hPa WSW 37 km/h 22.5 km/h 79 % 0.51 mm
12:14 8.7 °C 6 °C 997.5 hPa SW 18.5 km/h 14.8 km/h 83 % 1.02 mm
12:19 8.7 °C 6.4 °C 997.2 hPa SW 14.8 km/h 11.3 km/h 86 % 1.02 mm
12:24 8.9 °C 6.8 °C 997.2 hPa SW 13 km/h 12.7 km/h 87 % 1.02 mm
12:29 9.3 °C 7.4 °C 997.2 hPa SW 13 km/h 7.9 km/h 88 % 1.02 mm
12:34 9.8 °C 7.9 °C 997.2 hPa SW 11.1 km/h 8.2 km/h 88 % 1.02 mm
12:39 10.3 °C 8.4 °C 997.2 hPa SW 9.3 km/h 2.3 km/h 88 % 1.02 mm
12:44 10.5 °C 8.3 °C 997.2 hPa SW 13 km/h 6.9 km/h 86 % 1.02 mm
12:49 10.9 °C 8.4 °C 997.2 hPa SW 14.8 km/h 8.4 km/h 85 % 1.02 mm
12:54 11.3 °C 7.8 °C 997.2 hPa SW 31.5 km/h 21.4 km/h 79 % 1.02 mm
12:59 11.9 °C 7.8 °C 997.2 hPa SSW 31.5 km/h 22.7 km/h 76 % 1.02 mm
13:04 11.9 °C 7.7 °C 997.2 hPa SW 25.9 km/h 15 km/h 75 % 1.02 mm
13:09 12.1 °C 6.8 °C 997.2 hPa SW 31.5 km/h 24.9 km/h 70 % 0.51 mm
13:14 12.3 °C 5.9 °C 997.2 hPa SW 25.9 km/h 21.7 km/h 65 % 0 mm
13:19 12.6 °C 6.4 °C 997.2 hPa SW 31.5 km/h 18.7 km/h 66 % 0 mm
13:24 12.8 °C 6.6 °C 997.2 hPa SSW 24.1 km/h 14.5 km/h 66 % 0 mm
13:29 12.6 °C 6.6 °C 997.2 hPa WSW 29 km/h 20.4 km/h 67 % 0 mm
13:34 12.3 °C 7 °C 997.5 hPa SW 16.7 km/h 14.6 km/h 70 % 0 mm
13:39 12.1 °C 6.7 °C 997.5 hPa SW 22.2 km/h 7.6 km/h 70 % 0 mm
13:44 12.1 °C 7.2 °C 997.2 hPa South 22.2 km/h 11.1 km/h 72 % 0 mm
13:49 12.2 °C 7.3 °C 997.5 hPa SSW 22.2 km/h 12.9 km/h 72 % 0 mm
13:54 11.9 °C 7.3 °C 997.5 hPa SSW 18.5 km/h 13.5 km/h 73 % 0 mm
13:59 12 °C 7.5 °C 997.5 hPa SSW 18.5 km/h 10.3 km/h 74 % 0 mm
14:04 12.1 °C 7.6 °C 997.5 hPa SSW 18.5 km/h 15.8 km/h 74 % 0 mm
14:09 12.1 °C 7.6 °C 997.5 hPa SW 16.7 km/h 12.6 km/h 74 % 0 mm
14:14 12.2 °C 7.3 °C 997.9 hPa WSW 22.2 km/h 16.7 km/h 72 % 0 mm
14:19 12.2 °C 6.7 °C 998.2 hPa WSW 27.8 km/h 22 km/h 69 % 0 mm
14:24 10.6 °C 6.3 °C 998.5 hPa WSW 38.9 km/h 22.7 km/h 75 % 0 mm
14:29 9.8 °C 6.6 °C 998.9 hPa WSW 40.2 km/h 24.1 km/h 80 % 0 mm
14:34 9.4 °C 6.8 °C 998.9 hPa WSW 29.6 km/h 16.3 km/h 84 % 0 mm
14:39 9.1 °C 6.9 °C 998.9 hPa SW 37 km/h 22.5 km/h 86 % 0.25 mm
14:44 9 °C 7.1 °C 998.9 hPa SW 31.5 km/h 13.4 km/h 88 % 0.25 mm
14:49 8.9 °C 7.1 °C 999.2 hPa SW 38.9 km/h 24.8 km/h 88 % 0.51 mm
14:54 8.8 °C 6.8 °C 999.2 hPa North 42.6 km/h 30.6 km/h 87 % 0.51 mm
14:59 8.7 °C 6.6 °C 999.2 hPa North 37 km/h 24.8 km/h 87 % 0.51 mm
15:04 8.6 °C 6.7 °C 999.2 hPa WSW 29.6 km/h 18.3 km/h 88 % 0.51 mm
15:09 8.6 °C 6.7 °C 999.2 hPa WSW 38.9 km/h 19.2 km/h 88 % 0.76 mm
15:14 8.7 °C 7 °C 999.2 hPa SW 17.7 km/h 9.8 km/h 89 % 0.76 mm
15:19 8.8 °C 7.1 °C 999.2 hPa North 25.9 km/h 13.8 km/h 89 % 1.02 mm
15:24 8.8 °C 7.1 °C 999.2 hPa SW 22.2 km/h 11.7 km/h 89 % 1.02 mm
15:29 8.7 °C 6.9 °C 999.2 hPa North 22.2 km/h 17.9 km/h 89 % 1.27 mm
15:34 8.7 °C 6.9 °C 999.2 hPa North 12.9 km/h 9.2 km/h 89 % 1.52 mm
15:39 8.6 °C 6.9 °C 999.2 hPa WSW 24.1 km/h 14.5 km/h 89 % 1.27 mm
15:44 8.7 °C 7 °C 999.2 hPa West 20.9 km/h 10.6 km/h 89 % 1.52 mm
15:49 8.6 °C 6.7 °C 999.2 hPa North 35.2 km/h 17.4 km/h 88 % 1.27 mm
15:54 8.6 °C 6.7 °C 999.2 hPa SW 25.9 km/h 21.2 km/h 88 % 1.52 mm
15:59 8.6 °C 6.8 °C 999.2 hPa WSW 19.3 km/h 9.5 km/h 89 % 1.27 mm
16:04 8.5 °C 6.6 °C 999.2 hPa WSW 25.9 km/h 14.6 km/h 88 % 1.52 mm
16:09 8.7 °C 6.9 °C 998.9 hPa WSW 31.5 km/h 23 km/h 89 % 1.52 mm
16:14 8.7 °C 6.8 °C 998.9 hPa WSW 29.6 km/h 19.5 km/h 88 % 1.52 mm
16:19 8.7 °C 6.6 °C 998.9 hPa WSW 31.5 km/h 19.5 km/h 87 % 1.52 mm
16:24 8.7 °C 6.6 °C 998.9 hPa WSW 27.8 km/h 21.9 km/h 87 % 1.52 mm
16:29 8.6 °C 6.6 °C 998.5 hPa North 33.3 km/h 22.7 km/h 87 % 1.52 mm
16:34 8.7 °C 6.8 °C 998.5 hPa West 29 km/h 19.3 km/h 88 % 1.52 mm
16:39 8.7 °C 6.8 °C 998.5 hPa West 35.2 km/h 26.7 km/h 88 % 1.52 mm
16:44 8.9 °C 7 °C 998.5 hPa North 24.1 km/h 19.8 km/h 88 % 1.52 mm
16:49 8.9 °C 7 °C 998.5 hPa West 20.4 km/h 15.8 km/h 88 % 1.52 mm
16:54 8.9 °C 7 °C 998.9 hPa West 35.2 km/h 21.7 km/h 88 % 1.27 mm
16:59 8.9 °C 7.1 °C 998.5 hPa WSW 38.9 km/h 21.1 km/h 88 % 1.27 mm
17:04 9 °C 7.3 °C 998.9 hPa West 18.5 km/h 20.1 km/h 89 % 1.27 mm
17:09 9.2 °C 7.4 °C 998.9 hPa West 35.2 km/h 17.2 km/h 89 % 1.02 mm
17:14 9.3 °C 7.6 °C 998.9 hPa WSW 33.3 km/h 22.9 km/h 89 % 1.02 mm
17:19 9.3 °C 7.6 °C 998.9 hPa SW 38.9 km/h 29 km/h 89 % 0.76 mm
17:24 9.3 °C 7.8 °C 998.9 hPa SW 29.6 km/h 19.8 km/h 90 % 0.51 mm
17:29 9.4 °C 7.7 °C 998.9 hPa WSW 38.9 km/h 20.8 km/h 89 % 0.51 mm
17:34 9.4 °C 7.8 °C 999.2 hPa North 31.5 km/h 18.8 km/h 90 % 0.25 mm
17:39 9.3 °C 7.7 °C 999.2 hPa WSW 35.2 km/h 21.6 km/h 90 % 0.25 mm
17:44 9.2 °C 7.6 °C 999.2 hPa SW 33.8 km/h 24.5 km/h 90 % 0.51 mm
17:49 9.1 °C 7.5 °C 999.5 hPa SW 37 km/h 17.2 km/h 90 % 0.51 mm
17:54 9 °C 7.4 °C 999.5 hPa SSW 35.2 km/h 14 km/h 90 % 0.51 mm
17:59 8.9 °C 7.6 °C 999.9 hPa SW 44.4 km/h 27.8 km/h 91 % 0.51 mm
18:04 9 °C 7.6 °C 999.9 hPa SSW 38.6 km/h 31.4 km/h 91 % 0.51 mm
18:09 9.2 °C 7.8 °C 1000.2 hPa SW 38.9 km/h 24.3 km/h 91 % 0.51 mm
18:14 9.3 °C 7.7 °C 1000.2 hPa SW 38.9 km/h 29.3 km/h 90 % 0.51 mm
18:19 9.4 °C 7.9 °C 1000.2 hPa SW 31.5 km/h 21.7 km/h 90 % 0.51 mm
18:24 9.6 °C 7.8 °C 1000.6 hPa SW 42.6 km/h 26.1 km/h 89 % 0.51 mm
18:29 9.6 °C 7.7 °C 1000.6 hPa SW 40.7 km/h 28.8 km/h 88 % 0.51 mm
18:34 9.7 °C 7.8 °C 1000.9 hPa SW 37 km/h 19.8 km/h 88 % 0.51 mm
18:39 9.8 °C 7.7 °C 1000.9 hPa SSW 32.2 km/h 23.5 km/h 87 % 0.51 mm
18:44 9.9 °C 7.8 °C 1000.9 hPa SW 27.8 km/h 21.7 km/h 87 % 0.25 mm
18:49 10 °C 7.8 °C 1001.2 hPa SSW 29.6 km/h 21.2 km/h 86 % 0.25 mm
18:54 10.1 °C 7.8 °C 1001.2 hPa SSW 33.3 km/h 25.9 km/h 86 % 0.25 mm
18:59 10.1 °C 7.6 °C 1001.2 hPa SSW 38.9 km/h 21.4 km/h 84 % 0 mm
19:04 10.2 °C 7.6 °C 1001.6 hPa SSW 24.1 km/h 14 km/h 84 % 0 mm
19:09 10.2 °C 7.4 °C 1001.6 hPa SW 24.1 km/h 18.5 km/h 83 % 0 mm
19:14 10.2 °C 7.4 °C 1001.9 hPa SSW 19.3 km/h 14.2 km/h 83 % 0 mm
19:19 10.2 °C 7.4 °C 1001.9 hPa SW 16.7 km/h 15.9 km/h 83 % 0 mm
19:24 10.3 °C 7.5 °C 1002.3 hPa SW 18.5 km/h 10.9 km/h 83 % 0 mm
19:29 10.2 °C 7.4 °C 1002.3 hPa SW 20.9 km/h 19.3 km/h 83 % 0 mm
19:34 10.2 °C 7.4 °C 1002.3 hPa SW 25.9 km/h 17.2 km/h 83 % 0 mm
19:39 10.2 °C 7.4 °C 1002.6 hPa SW 25.9 km/h 18 km/h 83 % 0 mm
19:44 10.2 °C 7.4 °C 1002.6 hPa SW 25.7 km/h 16.7 km/h 83 % 0 mm
19:49 10.2 °C 7.4 °C 1002.6 hPa SW 29.6 km/h 15.3 km/h 83 % 0 mm
19:54 10.2 °C 7.4 °C 1002.6 hPa SW 24.1 km/h 24 km/h 83 % 0 mm
19:59 10.2 °C 7.4 °C 1002.9 hPa SW 27.8 km/h 16.4 km/h 83 % 0 mm
20:04 10.1 °C 7.6 °C 1002.9 hPa SW 24.1 km/h 17.5 km/h 84 % 0 mm
20:09 9.8 °C 7.6 °C 1002.9 hPa SSW 38.6 km/h 21.4 km/h 86 % 0 mm
20:14 9.6 °C 7.7 °C 1003.3 hPa WSW 33.3 km/h 25.9 km/h 88 % 0.25 mm
20:19 9.4 °C 7.7 °C 1003.3 hPa SW 42.6 km/h 22.9 km/h 89 % 0.25 mm
20:24 9.3 °C 7.8 °C 1003.3 hPa SW 37 km/h 26.2 km/h 90 % 0.25 mm
20:29 9.3 °C 7.7 °C 1003.3 hPa SW 27.8 km/h 21.7 km/h 90 % 0.51 mm
20:34 9.2 °C 7.8 °C 1003.3 hPa SW 33.8 km/h 20 km/h 91 % 0.51 mm
20:39 9.2 °C 7.8 °C 1003.6 hPa SSW 42.6 km/h 34.4 km/h 91 % 0.51 mm
20:44 9.3 °C 7.9 °C 1003.6 hPa SSW 38.9 km/h 22.7 km/h 91 % 0.51 mm
20:49 9.3 °C 7.9 °C 1003.6 hPa SW 31.5 km/h 23.8 km/h 91 % 0.51 mm
20:54 9.3 °C 8.1 °C 1003.6 hPa SW 29.6 km/h 19.6 km/h 92 % 0.51 mm
20:59 9.3 °C 8.1 °C 1003.9 hPa SSW 42.6 km/h 16.4 km/h 92 % 0.51 mm
21:04 9.3 °C 8.1 °C 1003.9 hPa SW 42.6 km/h 24.1 km/h 92 % 0.51 mm
21:09 9.3 °C 8.1 °C 1003.9 hPa SW 33.3 km/h 21.6 km/h 92 % 0.51 mm
21:14 9.2 °C 8 °C 1003.9 hPa SW 30.6 km/h 26.2 km/h 92 % 0.51 mm
21:19 9.2 °C 8 °C 1004.3 hPa SSW 37 km/h 22.4 km/h 92 % 0.51 mm
21:24 9.2 °C 7.9 °C 1004.3 hPa SSW 35.4 km/h 20.9 km/h 92 % 0.51 mm
21:29 9.2 °C 7.9 °C 1004.3 hPa SW 33.8 km/h 22 km/h 92 % 0.25 mm
21:34 9.2 °C 7.8 °C 1004.6 hPa SW 29.6 km/h 18.5 km/h 91 % 0.25 mm
21:39 9.2 °C 7.8 °C 1004.6 hPa SW 40.7 km/h 26.6 km/h 91 % 0.25 mm
21:44 9.2 °C 7.8 °C 1004.6 hPa SW 32.2 km/h 29.9 km/h 91 % 0.25 mm
21:49 9.2 °C 7.8 °C 1004.6 hPa WSW 35.4 km/h 21.7 km/h 91 % 0 mm
21:54 9.2 °C 7.8 °C 1005 hPa North 40.7 km/h 27 km/h 91 % 0 mm
21:59 9.2 °C 7.8 °C 1005 hPa SW 42.6 km/h 29.5 km/h 91 % 0 mm
22:04 9.2 °C 7.8 °C 1005 hPa SSW 31.5 km/h 21.7 km/h 91 % 0 mm
22:09 9.1 °C 7.7 °C 1005.3 hPa North 25.7 km/h 18.8 km/h 91 % 0 mm
22:14 9 °C 7.6 °C 1005.3 hPa SSW 20.4 km/h 15.8 km/h 91 % 0 mm
22:19 9.1 °C 7.7 °C 1005.3 hPa SSW 24.1 km/h 15 km/h 91 % 0 mm
22:24 9.1 °C 7.7 °C 1005.3 hPa SW 27.8 km/h 20 km/h 91 % 0 mm
22:29 9.1 °C 7.7 °C 1005.3 hPa SW 35.2 km/h 23.2 km/h 91 % 0 mm
22:34 9.2 °C 7.8 °C 1005.3 hPa SW 31.5 km/h 16.9 km/h 91 % 0 mm
22:39 9.2 °C 7.7 °C 1005.6 hPa North 24.1 km/h 11.9 km/h 90 % 0 mm
22:44 9.2 °C 7.6 °C 1005.6 hPa SW 31.5 km/h 21.4 km/h 90 % 0 mm
22:49 9.2 °C 7.6 °C 1005.6 hPa SSW 29.6 km/h 15.9 km/h 90 % 0 mm
22:54 9.2 °C 7.6 °C 1005.6 hPa WSW 22.5 km/h 19.6 km/h 90 % 0 mm
22:59 9.2 °C 7.5 °C 1005.6 hPa WSW 25.9 km/h 19.2 km/h 89 % 0 mm
23:04 9.2 °C 7.5 °C 1005.6 hPa SSW 18.5 km/h 11.6 km/h 89 % 0 mm
23:09 9.2 °C 7.4 °C 1005.6 hPa SW 25.9 km/h 16.9 km/h 89 % 0 mm
23:14 9.2 °C 7.4 °C 1005.6 hPa SW 29.6 km/h 17.5 km/h 89 % 0 mm
23:19 9.2 °C 7.4 °C 1005.6 hPa SW 24.1 km/h 16.1 km/h 89 % 0 mm
23:24 9.2 °C 7.4 °C 1005.6 hPa SW 24.1 km/h 18.8 km/h 89 % 0 mm
23:29 9.1 °C 7.2 °C 1006 hPa SSW 31.5 km/h 25.6 km/h 88 % 0 mm
23:34 9.1 °C 7.2 °C 1006 hPa SW 16.7 km/h 11.9 km/h 88 % 0 mm
23:39 9 °C 7.1 °C 1006 hPa SW 25.9 km/h 11.9 km/h 88 % 0 mm
23:44 8.9 °C 6.9 °C 1006 hPa SW 22.2 km/h 12.7 km/h 87 % 0 mm
23:49 8.9 °C 6.9 °C 1006 hPa SW 18.5 km/h 10.6 km/h 87 % 0 mm
23:54 8.9 °C 6.8 °C 1006 hPa SW 33.3 km/h 19.3 km/h 87 % 0 mm
23:59 8.9 °C 6.7 °C 1006 hPa SW 37 km/h 20.8 km/h 86 % 0 mm
Ararat Weather
Compliments of Weather Underground - 2.25 mb
Click here to send mail.


ABOUT

Live weather data from Ararat, Victoria, Australia, 3377
Data uploaded from Cumulus every 5 minutes to Weather Underground.
This site then downloads the raw data for formatting and display.
Metric and imperial data can be displayed. Graphs and historical data available.
Includes Sun and Moon times and rain image live from BOM.

Check out Ararat Weather on Facebook, Twitter and Google +

Help support ongoing costs by checking out the ads





Follow @AraratWeather